Terminal Aerodrome Forecast
Issued by NWS

Home | Current Version | Previous Version | Text Only | Print | Product List | Glossary On
Versions: 1 2 3 4 5 6 7 8 9 10 11
918
FTUS45 KABQ 082336
TAFSAF
TAF
KSAF 082336Z 0900/0924 35008KT P6SM FEW250
     FM090200 01006KT P6SM SKC
     FM091100 36012KT P6SM SKC
     FM092100 29007KT P6SM SKC=

USA.gov is the U.S. government's official web portal to all federal, state and local government web resources and services.